#timestamp,LO_Frequency,Hit,StdDev 
1507867215.5,286046997.6,N
1507867235.3,286046994.9,N
1507867255.2,286046997.6,N
1507867275.9,286046993.3,N
1507867295.7,286046993.9,N
1507867315.6,286046994.5,N
1507867335.4,286046994.5,N
1507867355.2,286046992.2,N
1507867375.1,286046996.4,N
1507867376.0,286046996.4,N
1507867395.8,286046991.0,N
1507867415.6,286046992.1,N
1507867435.5,286046994.6,N
1507867455.3,286046995.1,N
1507867475.1,286046993.5,N
1507867495.8,286046996.6,N
1507867515.7,286046998.0,N
1507867535.5,286046999.5,N
1507867555.3,286046994.9,N
1507867575.2,286046996.4,N
1507867595.9,286046995.7,N
1507867615.7,286046996.9,N
1507867635.6,286046995.9,N
1507867655.4,286046994.6,N
1507867675.2,286046993.3,N
1507867695.1,286046999.3,N
1507867696.0,286046999.3,N
1507867715.8,286046997.8,N
1507867735.6,286046998.7,N
1507867755.5,286046998.1,N
1507867775.3,286046997.8,N
1507867795.1,286046999.4,N
1507867815.9,286046998.8,N
1507867835.7,286046996.6,N
1507867855.5,286046999.6,N
1507867875.3,286046995.4,N
1507867895.2,286046996.1,N
1507867915.0,286046995.4,N
1507867915.9,286046995.4,N
1507867935.7,286046994.9,N
1507867955.6,286046998.5,N
1507867975.4,286046998.3,N
1507867995.2,286046997.2,N
1507868015.1,286047000.7,N
1507868016.0,286047000.7,N
1507868035.8,286047001.0,N
1507868055.6,286047001.0,N
1507868075.5,286046998.2,N
1507868095.3,286046998.1,N
1507868115.1,286046997.9,N
1507868135.9,286046997.0,N
1507868155.7,286046995.0,N
1507868175.5,286046997.2,N
1507868195.4,286046995.3,N
1507868215.2,286046996.3,N
1507868235.0,286046993.8,Y
1507868235.9,286046993.8,P
1507868255.8,286046997.0,N
1507868275.6,286046998.7,N
1507868295.4,286047002.8,N
1507868315.2,286046998.6,N
1507868335.1,286047001.1,N
1507868336.0,286047001.1,N
1507868355.8,286046999.2,N
1507868375.6,286046998.8,N
1507868395.5,286046998.9,N
1507868415.3,286046998.7,N
1507868435.1,286046998.9,N
1507868455.9,286047002.4,N
1507868475.7,286047002.8,N
1507868495.5,286047002.1,N
1507868515.4,286047003.7,N
1507868535.2,286047004.2,N
1507868555.0,286047002.7,N
1507868555.9,286047002.7,N
1507868575.8,286047000.0,N
1507868595.6,286046999.9,N
1507868615.4,286047001.1,N
1507868635.3,286046997.0,N
1507868655.1,286046997.1,N
1507868656.0,286046997.1,N
1507868675.8,286046997.9,N
1507868695.7,286046997.5,N
1507868715.5,286046997.7,N
1507868735.3,286046997.4,N
1507868755.1,286046993.9,N
1507868775.9,286046994.2,N
1507868795.7,286046993.7,N
1507868815.5,286046995.8,N
1507868835.4,286046997.4,N
1507868855.2,286046994.9,N
1507868875.0,286046995.3,N
1507868875.9,286046995.3,N
1507868895.8,286046996.1,N
1507868915.6,286046993.3,N
1507868935.4,286046995.8,N
1507868955.3,286046996.0,N
1507868975.1,286046996.7,N
1507868976.0,286046996.7,N
1507868995.8,286046998.7,N
1507869015.7,286046998.1,N
1507869035.5,286046998.5,N
1507869055.3,286046996.5,N
1507869075.2,286046999.4,N
1507869095.9,286046998.7,N
1507869115.7,286046998.1,N
1507869135.5,286047000.9,N
1507869155.4,286046998.5,N
1507869175.2,286046999.8,N
1507869195.0,286047001.5,N
1507869195.9,286047001.5,N
1507869215.8,286047002.6,N
1507869235.6,286046999.8,N
1507869255.4,286046999.9,N
1507869275.3,286046999.9,N
1507869295.1,286047002.3,N
1507869315.8,286046994.5,N
1507869335.7,286046998.2,N
1507869355.5,286046999.2,N
1507869375.3,286046997.5,N
1507869395.2,286046998.8,N
1507869415.9,286047000.5,N
1507869435.7,286046999.9,N
1507869455.6,286047001.2,N
1507869475.4,286046998.4,N
1507869495.2,286046999.7,N
1507869515.0,286047003.8,N
1507869516.0,286047003.8,N
1507869535.8,286047003.3,N
1507869555.6,286047001.3,N
1507869575.4,286047001.3,N
1507869595.3,286047003.5,N
1507869615.1,286047004.0,N
1507869635.8,286047002.5,N
1507869655.7,286047001.7,N
1507869675.5,286047003.8,N
1507869695.3,286047004.2,N
1507869715.2,286047002.1,N
1507869735.9,286047001.5,N
1507869755.7,286047004.3,N
1507869775.6,286046999.1,N
1507869795.4,286046999.0,N
1507869815.2,286046997.4,N
1507869835.0,286047000.7,N
1507869836.0,286047000.7,N
1507869855.8,286047000.3,N
1507869875.6,286047000.9,N
1507869895.4,286047002.0,N
1507869915.3,286047005.8,N
1507869935.1,286047007.6,Y
1507869955.9,286047003.7,P
1507869975.7,286047001.6,N
1507869995.5,286047002.4,N
1507870015.3,286047001.3,N
1507870035.2,286047000.0,N
1507870055.0,286046998.8,N
1507870055.9,286046998.8,N
1507870075.7,286046997.0,N
1507870095.6,286046997.3,N
1507870115.4,286046996.9,N
1507870135.2,286046993.7,N
1507870155.1,286046993.8,N
1507870156.0,286046993.8,N
1507870175.8,286046998.9,N
1507870195.6,286047003.6,N
1507870215.5,286047005.3,N
1507870235.3,286047005.6,N
1507870255.1,286047005.6,N
1507870275.9,286047005.7,N
1507870295.7,286047004.0,N
1507870315.5,286047000.2,N
1507870335.3,286046996.6,N
1507870355.2,286046995.8,N
1507870375.0,286046995.7,N
1507870375.9,286046995.7,N
1507870395.7,286046994.2,N
1507870415.6,286046995.8,N
1507870435.4,286046996.4,N
1507870455.2,286046994.9,N
1507870475.1,286046995.6,N
1507870476.0,286046995.6,N
1507870495.8,286046995.2,N
1507870515.6,286046997.0,N
1507870535.5,286046997.0,N
1507870555.3,286046997.4,N
1507870575.1,286046996.5,N
1507870595.9,286046995.1,N
1507870615.7,286046993.3,N
1507870635.5,286046995.0,N
1507870655.4,286046995.1,N
1507870675.2,286046996.9,N
1507870695.0,286046998.8,N
1507870695.9,286046998.8,N
1507870715.8,286046999.0,N
1507870735.6,286046997.0,N
1507870755.4,286046997.3,N
1507870775.2,286046998.7,N
1507870795.1,286046997.3,N
1507870796.0,286046997.3,N
